Weather History for TAPA - May, 2013

Change the Weather History Date:

Wednesday, May 22, 2013

  Actual Average Record
Temperature  
Mean Temperature 78 °F -  
Max Temperature 83 °F 85 °F 93 °F (2005)
Min Temperature 74 °F 76 °F 74 °F (2013)
Cooling Degree Days 14    
Growing Degree Days 28 (Base 50)    
Moisture  
Dew Point 71 °F    
Average Humidity 74    
Maximum Humidity 89    
Minimum Humidity 54    
Precipitation  
Precipitation 0.08 in - - ()
Sea Level Pressure  
Sea Level Pressure 29.99 in    
Wind  
Wind Speed 10 mph ()    
Max Wind Speed 16 mph    
Max Gust Speed -    
Visibility 9.0 miles    
Events Rain    
Averages and records for this station are not official NWS values.
T = Trace of Precipitation, MM = Missing Value Source: Averaged Metar Reports

Daily Weather History Graph

Daily Weather History Graph

Search for Another Location

Airport or City:

Trip Planner

Search our weather history database for the weather conditions in past years. The results will help you decide how hot, cold, wet, or windy it might be!

Date:

Astronomy

May. 22, 2013 Rise Set
Actual Time 5:33 AM AST 6:34 PM AST
Civil Twilight 5:10 AM AST 6:57 PM AST
Nautical Twilight 4:42 AM AST 7:25 PM AST
Astronomical Twilight 4:14 AM AST 7:53 PM AST
Moon 4:09 PM AST (5/22) 3:10 AM AST (5/22)
Length of Visible Light 13h 47m
Length of Day
13h 00m
Waxing Gibbous, 91% of the Moon is Illuminated
May 22
Waxing Gibbous
May 25
Full
May 31
Last Quarter
Jun 8
New
Jun 16
First Quarter

Hourly Weather History & Observations

Time (AST) Temp. Heat Index Dew Point Humidity Pressure Visibility Wind Dir Wind Speed Gust Speed Precip Events Conditions
1:00 AM 77.0 °F - 73.4 °F 89% 29.98 in 6.2 mi East 6.9 mph - N/A   Scattered Clouds
2:00 AM 78 °F - 72 °F 78% 29.97 in 17 mi East 9.2 mph - -   Haze
2:00 AM 77.0 °F - 73.4 °F 89% 29.95 in 6.2 mi East 9.2 mph - N/A   Partly Cloudy
3:00 AM 78.8 °F - 71.6 °F 78% 29.95 in 6.2 mi ESE 6.9 mph - N/A   Scattered Clouds
4:00 AM 75.2 °F - 71.6 °F 89% 29.95 in 6.2 mi SE 3.5 mph - N/A Rain Light Rain Showers
5:00 AM 76 °F - 73 °F 86% 29.95 in 16 mi East 8.1 mph - - Rain Light Rain Showers
5:00 AM 77.0 °F - 73.4 °F 89% 29.95 in 6.2 mi East 8.1 mph - N/A   Scattered Clouds
6:00 AM 77.0 °F - 73.4 °F 89% 29.95 in 6.2 mi East 12.7 mph - N/A Rain Light Rain Showers
7:00 AM 78.8 °F - 71.6 °F 78% 29.98 in 6.2 mi East 13.8 mph - N/A   Scattered Clouds
8:00 AM 79 °F - 73 °F 76% 30.00 in 17 mi East 13.8 mph - -   Haze
8:00 AM 78.8 °F - 73.4 °F 83% 29.98 in 6.2 mi East 13.8 mph - N/A   Scattered Clouds
9:00 AM 80.6 °F 84.6 °F 71.6 °F 74% 30.01 in 6.2 mi East 15.0 mph - N/A   Scattered Clouds
10:00 AM 82.4 °F 87.2 °F 71.6 °F 70% 30.01 in 6.2 mi East 15.0 mph - N/A   Scattered Clouds
11:00 AM 83 °F - 71 °F 60% 30.01 in 17 mi East 15.0 mph - -   Haze
11:00 AM 82.4 °F 87.2 °F 71.6 °F 70% 30.01 in 6.2 mi East 15.0 mph - N/A   Partly Cloudy
12:00 PM 82.4 °F 86.3 °F 69.8 °F 66% 30.01 in 6.2 mi East 13.8 mph - N/A   Partly Cloudy
1:00 PM 80.6 °F 83.2 °F 68.0 °F 65% 30.01 in 6.2 mi East 16.1 mph - N/A   Scattered Clouds
2:00 PM 81 °F - 70 °F 61% 30.00 in 17 mi East 13.8 mph - -   Haze
2:00 PM 80.6 °F 83.9 °F 69.8 °F 70% 29.98 in 6.2 mi East 13.8 mph - N/A   Scattered Clouds
3:00 PM 80.6 °F 83.9 °F 69.8 °F 70% 29.98 in 6.2 mi East 13.8 mph - N/A   Scattered Clouds
4:00 PM 80.6 °F 85.4 °F 73.4 °F 79% 29.98 in 6.2 mi ENE 12.7 mph - N/A   Mostly Cloudy
5:00 PM 80 °F - 70 °F 65% 29.99 in 17 mi East 13.8 mph - -   Haze
5:00 PM 80.6 °F 83.9 °F 69.8 °F 70% 29.98 in 6.2 mi East 13.8 mph - N/A   Scattered Clouds
6:00 PM 78.8 °F - 71.6 °F 78% 29.98 in 6.2 mi ENE 15.0 mph - N/A   Mostly Cloudy
7:00 PM 78.8 °F - 69.8 °F 74% 29.98 in 6.2 mi ENE 15.0 mph - N/A   Scattered Clouds
8:00 PM 80 °F - 71 °F 66% 30.01 in 17 mi ENE 15.0 mph - -   Haze
8:00 PM 78.8 °F - 71.6 °F 78% 30.01 in 6.2 mi ENE 15.0 mph - N/A   Scattered Clouds
9:00 PM 78.8 °F - 69.8 °F 74% 30.01 in 6.2 mi East 13.8 mph - N/A   Scattered Clouds
10:00 PM 78.8 °F - 68.0 °F 69% 30.01 in 6.2 mi East 13.8 mph - N/A   Scattered Clouds
11:00 PM 80 °F - 66 °F 54% 30.04 in 17 mi East 13.8 mph - -   Haze
11:00 PM 78.8 °F - 66.2 °F 65% 30.04 in 6.2 mi East 13.8 mph - N/A   Mostly Cloudy